Location: Unspecified
(58.9933°N, 5.6375°E)
Time: 15:43:53
(UTC+02:00)

Okean 3 - Visible Passes

Search period start: 26 August 2016 00:00
Search period end: 05 September 2016 00:00
Orbit: 577 x 604 km, 82.5° (Epoch: 25 August)

Date Brightness Start Highest point End Pass type
(mag) Time Alt. Az. Time Alt. Az. Time Alt. Az.
30 Aug 7.1 05:30:29 10° E 05:31:21 11° ENE 05:32:13 10° ENE visible
31 Aug 6.7 05:37:21 10° ESE 05:39:35 14° E 05:41:49 10° NE visible
01 Sep 6.4 05:44:55 10° SE 05:47:52 19° E 05:50:48 10° NE visible
